Location: St Paul
(33.9360°N, 83.4200°W)
Time: 14:59:09
(UTC-05:00)

Meteor 1-11 - Pass Details

Date: 06 October 2017
Orbit: 840 x 887 km, 81.2° (Epoch: 14 December)

Event Time Altitude Azimuth Distance (km) Brightness Sun altitude
Rises 21:05:05 0° 351° (N) 3,498 7.6 -24.5°
Reaches altitude 10° 21:07:33 10° 352° (N) 2,553 6.9 -25.0°
Maximum altitude 21:13:23 89° 70° (ENE) 887 4.2 -26.1°
Enters shadow 21:15:12 47° 172° (S) 1,157 4.7 -26.5°
